User: anonymous   Login
Location: Newark
(5.8900°S, 42.6378°W)
Time: 20:47:15
(UTC+00:00)
Language:

Transit 2A - Orbit

View from above orbital plane
View from above orbital plane
View from above satellite
View from above satellite

Ground track
Ground track

The orbit data is extracted from the following two-line orbital elements,

1    45U 60007A   19258.54084582 -.00000064  00000-0  10842-4 0  9993
2    45  66.6960  27.9687 0253014 158.0620 203.1549 14.33648957 83151
Epoch (UTC): 15 September 2019 12:58:49
Eccentricity: 0.0253014
inclination: 66.6960°
perigee height: 598 km
apogee height: 960 km
right ascension of ascending node: 27.9687°
argument of perigee: 158.0620°
revolutions per day: 14.33648957
mean anomaly at epoch: 203.1549°
orbit number at epoch: 8315

The dashed part of the orbit path shows where the satellite is in the earth's shadow,  

DLR